Location: Le Hiès Ruisseau
(43.3000°N, 0.4500°W)
Time: 03:28:39
(UTC+00:00)

IRIDIUM 106 - Pass Details

Date: 28 January 2023
Orbit: 776 x 779 km, 86.4° (Epoch: 27 March)

Event Time Altitude Azimuth Distance (km) Brightness Sun altitude
Rises 19:03:28 0° 1° (N) 3,275 7.5 -21.0°
Reaches altitude 10° 19:05:53 10° 6° (N) 2,342 6.7 -21.5°
Maximum altitude 19:11:01 54° 83° (E) 949 4.3 -22.4°
Enters shadow 19:11:07 54° 88° (E) 949 4.3 -22.4°
Exits shadow 19:16:13 10° 161° (SSE) 2,366 6.7 -23.4°
Sets 19:18:30 0° 166° (SSE) 3,247 7.4 -23.8°
